Regional Weather Roundup
Issued by NWS

Home | Current Version | Previous Version | Graphics & Text | Print | Product List | Glossary On
Versions: 1 2 3 4 5 6 7 8 9 10 11 12 13 14 15 16 17 18 19 20 21 22 23 24 25 26 27 28 29 30 31 32 33 34 35 36 37 38 39 40 41 42 43 44 45 46 47 48 49 50
000
ASUS43 KLSX 240610
RWRMO

WEATHER SUMMARY FOR MISSOURI
NATIONAL WEATHER SERVICE SPRINGFIELD MO
100 AM CDT WED AUG 24 2016

NOTE: "FAIR" INDICATES FEW OR NO CLOUDS BELOW 12,000 FEET WITH NO
       SIGNIFICANT WEATHER AND/OR OBSTRUCTIONS TO VISIBILITY.
       CURRENT SKY AND/OR WEATHER CONDITIONS ARE NOT AVAILABLE FOR
       CHILLICOTHE AND FARMINGTON.

MOZ001>031-035>038-043-044-053-054-240700-
...NORTHERN AND WESTERN MISSOURI...

CITY           SKY/WX    TMP DP  RH WIND       PRES   REMARKS
KANSAS CTY INT CLOUDY    80  69  69 S22G30    29.93R
6HR MIN TEMP:  79; 6HR MAX TEMP:  83;

KANSAS C DTWN  CLOUDY    81  70  69 S18G24    29.91F
6HR MIN TEMP:  81; 6HR MAX TEMP:  85;

LEE`S SUMMIT   CLOUDY    79  70  74 S17       29.95F
6HR MIN TEMP:  78; 6HR MAX TEMP:  83;

ST JOSEPH      LGT RAIN  79  71  76 SW10      29.89S
6HR MIN TEMP:  79; 6HR MAX TEMP:  84; 6HR PCP: TRACE;

CHILLICOTHE      N/A     78  72  81 S9        29.94F
6HR MIN TEMP:  78; 6HR MAX TEMP:  82;

KIRKSVILLE     CLOUDY    75  72  90 S12       29.96F
6HR MIN TEMP:  73; 6HR MAX TEMP:  75; 6HR PCP: TRACE;


$$
MOZ066>068-077>081-088>096-101>105-240700-
...SOUTHWEST MISSOURI...

CITY           SKY/WX    TMP DP  RH WIND       PRES   REMARKS
SPRINGFIELD    PTCLDY    76  69  79 S13       30.07S
6HR MIN TEMP:  76; 6HR MAX TEMP:  82;

JOPLIN         PTCLDY    78  70  76 S14       30.01F
6HR MIN TEMP:  78; 6HR MAX TEMP:  83;

BRANSON        CLOUDY    73  70  88 S7        30.11F

$$
MOZ032>034-039>042-045>050-055>058-069>072-240700-
...CENTRAL MISSOURI...

CITY           SKY/WX    TMP DP  RH WIND       PRES   REMARKS
COLUMBIA       PTCLDY    75  72  90 S9        30.03S
6HR MIN TEMP:  74; 6HR MAX TEMP:  76;

JEFFERSON CITY CLOUDY    77  72  84 S6        30.02F
6HR MIN TEMP:  74; 6HR MAX TEMP:  77;

ROLLA          MOCLDY    75  72  90 S12       30.07S
6HR MIN TEMP:  75; 6HR MAX TEMP:  76;

SEDALIA        PTCLDY    77  71  82 S13       30.01S
6HR MIN TEMP:  77; 6HR MAX TEMP:  82;

WHITEMAN AFB   MOCLDY    77  73  85 SW17      29.96F
OSAGE BEACH    CLOUDY    75  72  90 S8        30.04F

$$
MOZ051-052-059>065-240700-
...EAST CENTRAL MISSOURI...

CITY           SKY/WX    TMP DP  RH WIND       PRES   REMARKS
ST LOUIS INTL  PTCLDY    75  71  87 SE9       30.08S
6HR MIN TEMP:  75; 6HR MAX TEMP:  77;

SPIRIT OF STL  CLEAR     72  71  97 E5        30.06S
6HR MIN TEMP:  72; 6HR MAX TEMP:  76;

ST CHARLES     PTCLDY    70  70 100 E5        30.06F FOG
6HR MIN TEMP:  70; 6HR MAX TEMP:  73;


$$
MOZ072>076-082>087-097>100-106>115-240700-
...SOUTH CENTRAL AND SOUTHEAST MISSOURI...

CITY           SKY/WX    TMP DP  RH WIND       PRES   REMARKS
CAPE GIRARDEAU CLEAR     75  72  90 S13       30.11F
6HR MIN TEMP:  74; 6HR MAX TEMP:  80;

FARMINGTON     CLEAR     73  72  96 S9        30.12S
6HR MIN TEMP:  73; 6HR MAX TEMP:  76;

POPLAR BLUFF   FOG       73  72  96 CALM      30.11S VSB 1
6HR MIN TEMP:  73; 6HR MAX TEMP:  81;

WEST PLAINS    CLOUDY    75  71  87 S7        30.15R
6HR MIN TEMP:  75; 6HR MAX TEMP:  82;


$$




USA.gov is the U.S. government's official web portal to all federal, state and local government web resources and services.